Time,TemperatureF,DewpointF,PressureIn,WindDirection,WindDirectionDegrees,WindSpeedMPH,WindSpeedGustMPH,Humidity,HourlyPrecipIn,Conditions,Clouds,dailyrainin,SoftwareType,DateUTC
2013-04-04 00:08:00,39.2,32.0,25.85,ENE,60,9.0,11.0,76,0.00,,,0.00,weatherlink.com 1.10,2013-04-04 06:08:00,
2013-04-04 00:23:00,40.5,32.0,25.85,NNE,33,2.0,6.0,73,0.00,,,0.00,weatherlink.com 1.10,2013-04-04 06:23:00,
2013-04-04 00:38:00,40.8,33.0,25.85,ENE,75,2.0,5.0,73,0.00,,,0.00,weatherlink.com 1.10,2013-04-04 06:38:00,
2013-04-04 00:53:00,40.1,32.0,25.85,North,1,3.0,3.0,73,0.00,,,0.00,weatherlink.com 1.10,2013-04-04 06:53:00,
2013-04-04 01:08:00,39.8,32.0,25.87,North,353,4.0,4.0,74,0.00,,,0.00,weatherlink.com 1.10,2013-04-04 07:08:00,
2013-04-04 01:38:00,40.5,33.0,25.88,NNE,12,6.0,8.0,75,0.00,,,0.00,weatherlink.com 1.10,2013-04-04 07:38:00,
2013-04-04 01:53:00,39.8,32.0,25.87,NW,316,5.0,8.0,75,0.00,,,0.00,weatherlink.com 1.10,2013-04-04 07:53:00,
2013-04-04 02:08:00,37.9,31.0,25.87,North,8,6.0,7.0,77,0.00,,,0.00,weatherlink.com 1.10,2013-04-04 08:08:00,
2013-04-04 02:24:00,36.4,31.0,25.87,NNE,13,6.0,9.0,81,0.00,,,0.00,weatherlink.com 1.10,2013-04-04 08:24:00,
2013-04-04 02:39:00,36.7,32.0,25.87,NW,324,6.0,12.0,82,0.00,,,0.00,weatherlink.com 1.10,2013-04-04 08:39:00,
2013-04-04 02:54:00,36.3,32.0,25.86,NNE,18,5.0,9.0,83,0.00,,,0.00,weatherlink.com 1.10,2013-04-04 08:54:00,
2013-04-04 03:09:00,36.1,32.0,25.86,North,360,9.0,10.0,84,0.00,,,0.00,weatherlink.com 1.10,2013-04-04 09:09:00,
2013-04-04 03:24:00,35.7,31.0,25.86,NNE,27,7.0,8.0,83,0.00,,,0.00,weatherlink.com 1.10,2013-04-04 09:24:00,
2013-04-04 03:39:00,35.3,31.0,25.86,NE,46,5.0,10.0,84,0.00,,,0.00,weatherlink.com 1.10,2013-04-04 09:39:00,
2013-04-04 03:54:00,34.0,30.0,25.86,NNW,346,5.0,7.0,85,0.00,,,0.00,weatherlink.com 1.10,2013-04-04 09:54:00,
2013-04-04 04:09:00,33.1,29.0,25.86,NE,50,3.0,6.0,86,0.00,,,0.00,weatherlink.com 1.10,2013-04-04 10:09:00,
2013-04-04 04:24:00,32.2,29.0,25.86,NNE,26,1.0,3.0,87,0.00,,,0.00,weatherlink.com 1.10,2013-04-04 10:24:00,
2013-04-04 04:39:00,31.4,28.0,25.87,NNE,23,2.0,4.0,87,0.00,,,0.00,weatherlink.com 1.10,2013-04-04 10:39:00,
2013-04-04 04:54:00,30.1,27.0,25.87,NNE,29,4.0,4.0,88,0.00,,,0.00,weatherlink.com 1.10,2013-04-04 10:54:00,
2013-04-04 05:09:00,29.5,27.0,25.87,NNE,29,2.0,5.0,89,0.00,,,0.00,weatherlink.com 1.10,2013-04-04 11:09:00,
2013-04-04 05:24:00,29.3,27.0,25.87,NNE,13,4.0,7.0,91,0.00,,,0.00,weatherlink.com 1.10,2013-04-04 11:24:00,
2013-04-04 05:39:00,30.0,28.0,25.87,NNE,32,5.0,6.0,91,0.00,,,0.00,weatherlink.com 1.10,2013-04-04 11:39:00,
2013-04-04 05:54:00,29.7,27.0,25.88,NNW,343,0.0,4.0,90,0.00,,,0.00,weatherlink.com 1.10,2013-04-04 11:54:00,
2013-04-04 06:09:00,29.7,27.0,25.89,WNW,299,2.0,4.0,91,0.00,,,0.00,weatherlink.com 1.10,2013-04-04 12:09:00,
2013-04-04 06:24:00,29.7,27.0,25.89,NNW,333,0.0,5.0,90,0.00,,,0.00,weatherlink.com 1.10,2013-04-04 12:24:00,
2013-04-04 06:39:00,29.7,27.0,25.89,North,9,0.0,2.0,88,0.00,,,0.00,weatherlink.com 1.10,2013-04-04 12:39:00,
2013-04-04 07:09:00,31.1,27.0,25.89,NW,321,1.0,2.0,86,0.00,,,0.00,weatherlink.com 1.10,2013-04-04 13:09:00,
2013-04-04 07:39:00,33.3,29.0,25.89,WNW,294,1.0,2.0,85,0.00,,,0.00,weatherlink.com 1.10,2013-04-04 13:39:00,
2013-04-04 07:54:00,35.4,30.0,25.90,WNW,299,2.0,3.0,82,0.00,,,0.00,weatherlink.com 1.10,2013-04-04 13:54:00,
2013-04-04 08:09:00,38.7,31.0,25.90,West,270,0.0,2.0,74,0.00,,,0.00,weatherlink.com 1.10,2013-04-04 14:09:00,
2013-04-04 08:24:00,39.3,31.0,25.90,SW,236,0.0,2.0,72,0.00,,,0.00,weatherlink.com 1.10,2013-04-04 14:24:00,
2013-04-04 08:39:00,41.5,32.0,25.89,ESE,120,0.0,2.0,68,0.00,,,0.00,weatherlink.com 1.10,2013-04-04 14:39:00,
2013-04-04 08:54:00,42.0,31.0,25.89,SW,231,2.0,6.0,65,0.00,,,0.00,weatherlink.com 1.10,2013-04-04 14:54:00,
2013-04-04 09:09:00,42.5,31.0,25.89,SSE,165,5.0,7.0,63,0.00,,,0.00,weatherlink.com 1.10,2013-04-04 15:09:00,
2013-04-04 09:24:00,43.3,31.0,25.89,WSW,248,2.0,5.0,63,0.00,,,0.00,weatherlink.com 1.10,2013-04-04 15:24:00,
2013-04-04 09:39:00,44.5,31.0,25.88,South,169,4.0,8.0,59,0.00,,,0.00,weatherlink.com 1.10,2013-04-04 15:39:00,
2013-04-04 09:55:00,45.3,31.0,25.88,SSW,201,2.0,5.0,58,0.00,,,0.00,weatherlink.com 1.10,2013-04-04 15:55:00,
2013-04-04 10:10:00,47.0,32.0,25.88,SW,217,3.0,4.0,56,0.00,,,0.00,weatherlink.com 1.10,2013-04-04 16:10:00,
2013-04-04 10:25:00,49.2,32.0,25.88,WNW,288,0.0,4.0,52,0.00,,,0.00,weatherlink.com 1.10,2013-04-04 16:25:00,
2013-04-04 10:40:00,49.3,31.0,25.88,East,97,1.0,6.0,50,0.00,,,0.00,weatherlink.com 1.10,2013-04-04 16:40:00,
2013-04-04 10:55:00,51.2,32.0,25.88,SSE,166,1.0,3.0,49,0.00,,,0.00,weatherlink.com 1.10,2013-04-04 16:55:00,
2013-04-04 11:10:00,50.5,32.0,25.88,SE,125,2.0,11.0,49,0.00,,,0.00,weatherlink.com 1.10,2013-04-04 17:10:00,
2013-04-04 11:25:00,51.5,32.0,25.88,SW,232,4.0,9.0,48,0.00,,,0.00,weatherlink.com 1.10,2013-04-04 17:25:00,
2013-04-04 11:55:00,54.0,32.0,25.87,SE,127,9.0,13.0,44,0.00,,,0.00,weatherlink.com 1.10,2013-04-04 17:55:00,
2013-04-04 12:10:00,54.5,32.0,25.86,SE,142,4.0,10.0,43,0.00,,,0.00,weatherlink.com 1.10,2013-04-04 18:10:00,
2013-04-04 12:25:00,55.7,33.0,25.86,SW,224,6.0,9.0,43,0.00,,,0.00,weatherlink.com 1.10,2013-04-04 18:25:00,
2013-04-04 12:40:00,57.6,34.0,25.85,SE,132,7.0,13.0,41,0.00,,,0.00,weatherlink.com 1.10,2013-04-04 18:40:00,
2013-04-04 12:55:00,57.9,34.0,25.84,SE,139,6.0,11.0,40,0.00,,,0.00,weatherlink.com 1.10,2013-04-04 18:55:00,
2013-04-04 13:10:00,59.2,33.0,25.84,West,262,5.0,13.0,38,0.00,,,0.00,weatherlink.com 1.10,2013-04-04 19:10:00,
2013-04-04 13:25:00,60.2,34.0,25.83,SW,223,9.0,13.0,37,0.00,,,0.00,weatherlink.com 1.10,2013-04-04 19:25:00,
2013-04-04 13:40:00,60.8,33.0,25.83,SW,229,7.0,12.0,36,0.00,,,0.00,weatherlink.com 1.10,2013-04-04 19:40:00,
2013-04-04 14:11:00,62.6,34.0,25.81,SSE,158,7.0,14.0,34,0.00,,,0.00,weatherlink.com 1.10,2013-04-04 20:11:00,
2013-04-04 14:26:00,62.6,34.0,25.80,South,188,7.0,17.0,34,0.00,,,0.00,weatherlink.com 1.10,2013-04-04 20:26:00,
2013-04-04 14:41:00,63.2,33.0,25.80,ESE,120,5.0,18.0,33,0.00,,,0.00,weatherlink.com 1.10,2013-04-04 20:41:00,
2013-04-04 15:56:00,64.5,32.0,25.77,South,188,9.0,15.0,30,0.00,,,0.00,weatherlink.com 1.10,2013-04-04 21:56:00,
2013-04-04 16:11:00,64.4,31.0,25.77,SSW,201,5.0,15.0,29,0.00,,,0.00,weatherlink.com 1.10,2013-04-04 22:11:00,
2013-04-04 16:41:00,64.5,31.0,25.76,SE,145,11.0,14.0,29,0.00,,,0.00,weatherlink.com 1.10,2013-04-04 22:41:00,
2013-04-04 16:56:00,65.7,32.0,25.76,SE,139,8.0,17.0,28,0.00,,,0.00,weatherlink.com 1.10,2013-04-04 22:56:00,
2013-04-04 17:11:00,66.6,31.0,25.75,SSW,194,7.0,11.0,26,0.00,,,0.00,weatherlink.com 1.10,2013-04-04 23:11:00,
2013-04-04 17:26:00,65.8,30.0,25.75,SW,225,10.0,15.0,26,0.00,,,0.00,weatherlink.com 1.10,2013-04-04 23:26:00,
2013-04-04 17:41:00,66.0,31.0,25.75,SSW,211,8.0,16.0,27,0.00,,,0.00,weatherlink.com 1.10,2013-04-04 23:41:00,
2013-04-04 17:56:00,66.1,30.0,25.75,WSW,243,11.0,15.0,26,0.00,,,0.00,weatherlink.com 1.10,2013-04-04 23:56:00,
2013-04-04 18:11:00,63.5,31.0,25.75,SE,142,9.0,13.0,30,0.00,,,0.00,weatherlink.com 1.10,2013-04-05 00:11:00,
2013-04-04 18:26:00,62.1,32.0,25.74,SE,135,7.0,12.0,32,0.00,,,0.00,weatherlink.com 1.10,2013-04-05 00:26:00,
2013-04-04 18:56:00,60.9,32.0,25.74,SSW,207,11.0,13.0,34,0.00,,,0.00,weatherlink.com 1.10,2013-04-05 00:56:00,
2013-04-04 19:26:00,57.6,32.0,25.74,SSE,150,12.0,16.0,38,0.00,,,0.00,weatherlink.com 1.10,2013-04-05 01:26:00,
2013-04-04 19:41:00,56.4,32.0,25.74,South,173,8.0,14.0,40,0.00,,,0.00,weatherlink.com 1.10,2013-04-05 01:41:00,
2013-04-04 19:56:00,56.0,32.0,25.74,SSW,195,12.0,17.0,41,0.00,,,0.00,weatherlink.com 1.10,2013-04-05 01:56:00,
2013-04-04 20:26:00,54.5,32.0,25.74,SSW,210,8.0,17.0,43,0.00,,,0.00,weatherlink.com 1.10,2013-04-05 02:26:00,
2013-04-04 20:41:00,53.2,32.0,25.75,SSW,200,8.0,13.0,45,0.00,,,0.00,weatherlink.com 1.10,2013-04-05 02:41:00,
2013-04-04 20:56:00,51.8,32.0,25.75,SSE,154,9.0,12.0,47,0.00,,,0.00,weatherlink.com 1.10,2013-04-05 02:56:00,
2013-04-04 21:11:00,51.1,32.0,25.75,South,175,7.0,12.0,49,0.00,,,0.00,weatherlink.com 1.10,2013-04-05 03:11:00,
2013-04-04 21:26:00,50.3,32.0,25.75,SSW,210,9.0,13.0,50,0.00,,,0.00,weatherlink.com 1.10,2013-04-05 03:26:00,
2013-04-04 22:11:00,48.7,32.0,25.75,SSW,195,7.0,13.0,53,0.00,,,0.00,weatherlink.com 1.10,2013-04-05 04:11:00,
2013-04-04 22:26:00,49.7,33.0,25.75,South,180,11.0,16.0,52,0.00,,,0.00,weatherlink.com 1.10,2013-04-05 04:26:00,
2013-04-04 22:41:00,49.9,33.0,25.74,WSW,238,12.0,16.0,52,0.00,,,0.00,weatherlink.com 1.10,2013-04-05 04:41:00,
2013-04-04 22:56:00,50.1,33.0,25.74,SW,235,15.0,17.0,52,0.00,,,0.00,weatherlink.com 1.10,2013-04-05 04:56:00,
2013-04-04 23:11:00,50.3,33.0,25.73,SW,217,17.0,22.0,52,0.00,,,0.00,weatherlink.com 1.10,2013-04-05 05:11:00,
2013-04-04 23:26:00,49.3,33.0,25.73,SW,215,15.0,20.0,53,0.00,,,0.00,weatherlink.com 1.10,2013-04-05 05:26:00,
2013-04-04 23:42:00,48.4,33.0,25.73,SSW,212,10.0,20.0,55,0.00,,,0.00,weatherlink.com 1.10,2013-04-05 05:42:00,
2013-04-04 23:57:00,47.6,32.0,25.73,SSW,195,13.0,16.0,56,0.00,,,0.00,weatherlink.com 1.10,2013-04-05 05:57:00,